Home > Weather > Burlington > Past weeks

Flag for Canada Past Weather in Burlington, Ontario, Canada — Yesterday and Last 2 Weeks

Now
77 °F

Warm.


Feels Like: 79 °F
Forecast: 73 / 83 °F
Wind: 6 mph from Southwest

Location: Burlington Piers

Current Time: Aug 25, 2016 at 11:09:06 AM

Latest Report: Aug 25, 2016 at 10:00 AM


Visibility: N/A

Pressure: 29.93 "Hg

Humidity: 82%

Dew Point: 71 °F

Location of BurlingtonLocation

Past Weather in Burlington — Graph

°F

Burlington Temperature Yesterday

Maximum temperature yesterday: 83 °F (at 4:00 PM)
Minimum temperature yesterday: 68 °F (at 4:00 AM)
Average temperature yesterday: 75 °F

High & Low Weather Summary for the Past Weeks

 TemperatureHumidityPressure
High91 °F (Aug 10, 6:00 PM)93% (Aug 13, 6:00 AM)30.26 "Hg (Aug 13, 6:00 AM)
Low60 °F (Aug 22, 5:00 AM)35% (Aug 22, 5:00 PM)29.57 "Hg (Aug 21, 3:00 AM)
Average75 °F70%29.96 "Hg
* Reported Aug 10 10:00 AM — Aug 25 10:00 AM, Burlington, Weather by CustomWeather, © 2016

Note: Actual official high and low records may vary slightly from our data, if they occured in-between our weather recording intervals... More about our weather records

Advertising

Burlington Weather History for the Previous 24 Hours

Scroll right to see more
 ConditionsComfort  
Time TempWeatherWind HumidityBarometerVisibility
10:00 AM
Thu, Aug 25
77 °FWarm.6 mph82%29.93 "HgN/A
9:00 AM76 °FMild.6 mph84%29.92 "HgN/A
8:00 AM76 °FMild.5 mph87%29.91 "HgN/A
7:00 AM74 °FMild.3 mph90%29.92 "HgN/A
6:00 AM74 °FMild.No wind91%29.91 "HgN/A
5:00 AM74 °FMild.5 mph91%29.89 "HgN/A
4:00 AM74 °FMild.3 mph91%29.89 "HgN/A
3:00 AM73 °FMild.3 mph92%29.91 "HgN/A
2:00 AM72 °FMild.6 mph92%29.91 "HgN/A
1:00 AM77 °FWarm.5 mph71%29.92 "HgN/A
12:00 AM80 °FWarm.10 mph59%29.94 "HgN/A
11:00 PM
Wed, Aug 24
80 °FWarm.10 mph56%29.95 "HgN/A
10:00 PM79 °FWarm.10 mph52%29.96 "HgN/A
9:00 PM81 °FWarm.7 mph49%29.98 "HgN/A
8:00 PM82 °FWarm.10 mph46%29.99 "HgN/A
7:00 PM82 °FWarm.13 mph45%29.99 "HgN/A
6:00 PM82 °FWarm.13 mph45%30.01 "HgN/A
5:00 PM82 °FWarm.13 mph40%30.02 "HgN/A
4:00 PM83 °FWarm.16 mph41%30.03 "HgN/A
3:00 PM82 °FWarm.13 mph41%30.06 "HgN/A
2:00 PM82 °FWarm.13 mph43%30.08 "HgN/A
1:00 PM81 °FWarm.12 mph44%30.10 "HgN/A
12:00 PM80 °FWarm.10 mph47%30.12 "HgN/A
11:00 AM70 °FMild.9 mph80%30.15 "HgN/A
Weather by CustomWeather, © 2016

See weather overviewHow to use our weather pages